Theta_e
293 294 294 295 293 294 294 293 293 291 292 290 287 288 292 293 288 286 292 294 291 293 296 298 299 300 299 300 300 302 302 301 301 300 298 300 301 302 303 300 299 299 300 300 300 298 296 295 294 294 294 294 295 295 295 296 296 296 297 296 295 295 295 294 295 295 294 292 291 290 289 288 287 287 286 285 284 283 283 283 284 283 283 282 282 282 283
292 293 294 295 293 291 292 292 293 294 293 291 291 291 293 293 291 294 294 294 294 297 297 299 300 302 302 302 302 301 299 300 301 301 301 302 303 303 303 302 302 301 300 300 300 299 297 296 295 295 294 294 294 294 294 295 295 295 296 295 295 295 295 294 295 294 293 291 290 290 289 287 286 286 285 284 284 283 283 283 283 283 282 282 282 282 282
288 292 294 294 293 292 289 291 291 292 293 293 292 293 293 294 293 295 294 293 293 299 301 301 302 303 302 301 299 299 301 302 302 302 302 303 303 304 304 304 304 304 302 301 300 298 298 297 296 296 296 295 294 294 294 294 294 295 295 294 294 295 295 295 295 294 292 291 290 288 288 286 285 285 284 284 284 283 283 283 282 282 282 282 282 282 282
285 290 290 291 292 288 287 287 290 290 290 288 290 289 293 292 290 292 292 290 291 297 301 301 301 301 299 299 300 300 301 302 302 302 302 302 303 304 305 305 306 305 304 302 300 299 299 299 298 297 296 295 294 293 294 294 294 294 293 293 293 294 294 294 294 293 291 290 288 288 287 286 285 284 284 284 283 283 283 283 282 282 282 282 282 282 282
284 289 291 289 288 286 284 285 289 292 292 292 293 294 294 294 295 290 288 290 296 299 299 299 299 300 299 299 300 301 302 303 303 302 302 303 304 305 306 306 306 307 306 305 304 304 305 302 300 298 297 295 294 294 293 294 294 293 292 292 292 293 293 293 293 292 290 289 288 287 286 286 285 284 284 283 283 282 282 283 283 281 281 282 282 282 282
285 287 287 288 285 278 280 293 296 296 293 293 290 290 292 294 295 293 296 296 299 299 298 298 298 298 299 300 302 304 303 303 303 303 304 305 306 306 307 306 307 307 306 305 305 304 303 302 300 299 296 296 296 295 294 293 292 292 291 291 292 291 292 291 291 290 289 288 287 287 286 286 285 284 284 283 283 283 283 283 282 281 282 282 282 282 282
284 287 286 283 277 280 291 297 298 298 298 297 294 294 295 296 296 296 295 296 297 298 300 300 301 302 302 302 302 302 302 304 304 304 304 304 304 305 305 305 305 304 304 304 303 300 298 297 297 296 295 294 294 293 292 292 292 291 291 291 290 291 290 290 290 289 288 288 287 286 286 285 284 284 283 283 283 283 283 282 281 281 282 282 282 282 282
287 285 284 277 278 288 292 296 296 298 298 297 296 293 296 296 296 297 295 296 297 299 299 301 302 301 299 300 300 301 302 303 303 304 304 305 305 304 305 304 304 304 303 303 302 301 298 296 294 294 294 293 292 291 291 291 290 290 290 290 290 290 289 289 289 289 287 286 286 286 285 284 284 283 283 283 283 283 282 282 282 282 282 283 282 282 282
281 284 284 283 289 288 289 290 291 294 292 293 291 287 292 297 298 297 297 297 298 299 300 300 301 298 297 297 299 301 301 302 302 303 304 305 305 305 303 302 303 304 302 300 298 296 294 294 293 293 292 291 291 290 289 289 289 289 288 288 289 289 288 288 288 288 287 286 286 285 285 284 284 283 283 283 283 283 282 282 282 282 282 282 282 282 282
287 283 282 283 282 279 286 294 297 300 300 299 299 293 289 298 299 300 299 297 298 298 299 299 298 297 294 294 296 301 302 301 301 301 302 302 301 301 302 301 298 296 294 293 292 293 292 291 291 290 290 289 289 288 288 288 288 287 287 288 288 288 288 288 287 287 287 286 285 285 284 284 284 284 284 284 283 283 282 281 281 281 281 282 282 282 282
286 283 281 281 280 283 291 292 295 298 298 300 297 291 287 296 298 299 300 298 299 298 298 298 296 294 291 293 297 301 300 301 301 301 302 301 300 300 299 298 296 294 292 290 290 289 290 289 288 288 289 288 288 287 287 287 287 287 287 288 287 287 287 287 287 287 286 286 285 285 284 284 284 283 283 283 283 283 282 282 281 282 281 281 281 281 281
285 284 282 280 285 285 291 295 296 296 298 300 294 283 283 295 298 298 298 297 298 298 298 297 294 294 291 294 299 303 302 302 302 302 302 301 297 294 290 289 290 289 288 287 288 288 288 288 287 287 288 288 287 286 286 287 286 286 287 287 288 288 287 287 286 286 286 285 285 284 284 284 284 284 284 282 282 282 282 282 281 281 281 280 279 280 280
284 285 283 286 286 290 292 293 294 293 299 296 286 281 289 296 298 297 298 297 298 298 297 296 293 295 299 301 302 293 295 295 294 291 291 293 292 291 289 288 286 287 287 288 288 288 287 286 286 287 287 286 286 285 286 286 285 286 287 287 287 286 286 286 285 285 285 285 284 284 284 284 284 283 283 282 282 281 281 281 280 280 280 280 279 279 280
283 285 283 283 287 291 293 295 293 294 292 285 285 293 297 299 296 295 297 297 298 298 297 296 297 299 301 301 298 293 294 296 294 290 288 287 287 286 286 285 286 286 286 285 285 285 285 286 286 286 286 285 285 285 285 285 285 286 286 286 286 285 284 284 285 285 284 285 284 284 284 284 283 282 282 282 282 282 281 281 280 280 279 279 279 279 279
286 285 282 281 278 288 297 295 292 293 289 291 298 298 292 290 293 293 292 295 297 297 297 298 298 298 299 299 297 295 292 292 290 289 288 288 288 287 286 285 285 286 285 285 285 284 284 285 286 286 285 284 284 284 284 284 285 285 285 285 284 284 284 283 283 283 283 283 283 283 283 283 282 282 282 281 282 282 281 280 280 279 279 279 279 278 278
283 283 280 281 288 291 295 298 291 294 295 299 295 295 296 294 289 291 294 294 296 297 297 297 297 297 298 295 292 291 290 289 288 288 288 288 287 287 287 286 285 285 285 284 284 284 284 285 285 285 284 283 283 284 283 284 284 284 284 284 284 283 282 282 282 283 283 283 283 283 283 283 282 281 281 281 281 281 281 280 279 279 279 279 278 278 277
284 283 286 289 290 291 292 292 292 291 292 292 290 291 292 294 295 290 292 294 295 296 296 298 298 297 297 296 293 291 290 288 287 287 286 287 287 286 285 285 284 284 285 284 283 283 284 284 284 284 284 283 282 282 282 283 283 283 282 282 282 282 281 282 282 282 282 282 282 283 283 283 282 281 281 281 280 281 281 280 279 278 278 278 279 278 278
289 289 287 290 291 291 291 293 293 292 292 293 290 289 289 292 290 287 289 291 290 291 292 293 294 295 295 293 290 290 289 287 287 286 286 285 286 285 284 283 283 284 283 283 283 282 283 283 283 283 283 284 282 282 283 283 283 282 281 281 280 280 281 281 281 282 282 282 282 283 283 283 282 282 281 280 280 280 280 280 280 279 279 278 279 279 279
285 280 289 288 290 292 291 292 293 293 290 290 289 289 290 289 287 286 287 287 287 288 288 290 293 295 291 291 289 288 287 286 285 285 285 284 284 283 282 282 282 282 283 282 282 282 281 281 282 282 282 283 283 282 282 282 282 282 281 281 280 280 280 281 281 282 282 282 282 282 283 283 282 282 282 281 281 280 281 281 281 281 280 279 279 278 278
284 284 289 291 292 292 291 290 290 293 295 293 290 290 289 287 286 286 286 286 286 287 287 289 289 292 289 289 288 286 286 286 285 284 284 284 283 283 283 282 282 283 283 282 281 281 279 279 280 280 280 281 281 282 282 282 282 282 281 281 280 280 280 281 281 281 281 277 280 282 282 282 282 282 282 282 281 281 281 281 280 280 279 278 278 278 278
287 290 290 290 290 290 291 292 291 292 292 292 293 291 287 287 287 287 287 285 286 286 286 286 287 287 287 287 287 285 285 284 284 283 283 283 283 282 281 282 283 283 282 281 280 278 277 277 278 277 277 277 280 281 281 281 281 281 281 279 280 279 280 281 281 280 281 281 282 281 280 279 280 281 281 281 281 279 277 280 281 281 279 279 279 279 279
283 284 286 289 285 285 289 291 290 290 291 290 291 292 289 287 287 288 287 285 285 284 285 286 287 287 286 285 285 285 284 283 283 283 282 282 281 281 282 282 283 282 281 279 278 276 275 275 275 275 275 274 276 279 281 281 281 280 279 279 279 279 279 280 279 280 280 279 278 278 278 278 277 276 276 279 278 278 277 278 278 279 280 279 278 278 278
283 288 290 290 290 290 291 293 295 294 292 290 290 291 291 290 288 289 288 286 285 285 284 286 287 286 285 284 285 284 283 283 282 282 282 281 281 281 281 280 280 279 278 277 275 274 273 273 273 273 273 273 274 275 279 280 280 279 279 279 278 278 278 278 278 278 278 277 277 277 277 278 277 277 277 278 279 279 279 279 279 279 279 278 278 278 277
290 292 292 291 289 289 291 293 294 293 291 290 290 291 291 291 290 287 287 288 289 288 284 284 286 287 285 285 286 285 284 283 282 282 282 282 282 281 281 280 279 278 276 275 274 273 273 272 272 271 271 271 271 272 275 279 279 279 279 278 278 277 277 276 276 277 277 276 275 276 276 276 277 277 277 276 277 279 280 280 280 279 279 279 278 278 277
289 294 294 293 292 293 294 294 291 289 288 288 289 290 291 290 289 288 287 287 287 288 288 286 284 285 285 285 285 284 283 282 282 282 281 281 281 281 280 280 278 277 276 276 274 272 272 271 271 271 270 269 269 271 274 277 278 278 278 278 277 276 275 275 274 274 274 274 275 275 275 274 275 276 277 276 275 276 278 280 280 279 279 279 279 278 278
293 293 294 290 287 289 290 290 291 291 291 289 288 289 289 288 289 287 287 287 287 287 286 286 285 283 285 284 284 283 282 281 281 281 281 280 280 280 279 279 278 277 275 273 272 272 271 271 271 271 269 267 267 267 270 274 276 276 276 276 275 274 273 273 273 273 274 274 274 274 274 275 275 276 276 277 276 276 275 275 276 278 280 280 279 279 279
292 293 290 288 289 291 292 289 291 294 290 290 289 290 289 287 285 286 284 283 283 285 286 285 284 283 283 284 282 282 281 280 280 280 280 280 280 280 279 278 276 274 272 272 271 271 270 270 270 269 267 265 264 265 269 274 275 275 274 274 273 270 269 270 274 274 274 274 274 274 274 274 274 275 275 275 275 274 274 274 273 272 272 274 277 279 278
290 290 290 288 288 290 291 290 288 289 289 288 288 288 285 283 283 281 281 282 281 282 283 283 282 282 281 281 281 280 280 279 279 279 279 279 277 276 275 274 273 272 271 271 269 269 269 269 268 267 265 264 264 264 269 272 273 273 273 272 272 272 272 272 273 274 274 274 274 274 274 273 273 272 273 273 273 273 273 273 271 269 268 268 268 273 276
287 288 289 290 291 289 284 284 286 286 287 285 284 284 282 282 282 283 283 284 283 282 281 281 282 283 282 281 282 280 280 280 279 279 277 275 274 273 273 272 271 270 269 268 268 268 269 269 268 266 264 263 263 264 268 271 272 272 271 272 272 272 272 272 272 271 271 271 271 272 271 269 270 270 272 271 271 272 271 270 268 268 267 266 268 269 270
287 286 285 286 286 284 284 286 288 288 286 283 282 281 282 284 282 283 283 282 281 281 281 281 281 281 281 281 281 281 280 280 279 275 272 272 272 271 271 270 269 269 268 267 267 268 268 268 268 266 263 262 263 264 267 269 270 269 269 270 271 270 269 268 268 267 268 268 268 267 268 269 269 269 268 268 268 268 267 267 266 265 265 266 268 268 267
274 281 283 284 284 283 283 285 286 285 284 282 281 281 281 281 283 284 283 281 280 281 280 280 281 280 280 281 280 278 276 274 272 271 271 270 269 269 269 271 272 271 270 268 267 267 267 266 264 263 261 260 262 263 266 267 267 267 267 267 266 266 266 267 268 269 268 267 266 267 267 268 268 267 266 266 266 266 266 265 265 265 265 265 266 266 265
270 277 280 281 282 282 282 283 284 284 284 283 281 280 281 281 280 282 282 280 280 280 279 280 279 279 280 277 274 273 271 270 270 269 269 269 269 268 268 267 269 268 266 265 265 265 265 264 262 260 259 260 262 263 265 267 268 268 267 265 267 267 267 267 267 267 266 266 266 267 266 267 267 266 266 266 266 265 264 264 263 263 264 264 264 263 262
269 276 281 278 275 277 279 281 282 283 283 282 282 283 284 283 283 284 283 281 280 279 279 279 280 278 275 273 272 270 269 268 268 268 267 267 265 263 263 264 265 264 262 262 262 263 263 262 260 260 259 261 262 262 264 266 268 268 268 268 267 266 265 266 265 265 265 265 266 265 265 265 265 266 266 265 264 264 264 263 263 262 263 263 263 262 261
261 264 264 262 264 267 269 271 272 274 280 283 282 281 282 282 282 282 281 280 280 279 279 279 276 273 272 272 271 269 268 269 268 267 266 264 263 262 262 262 261 260 260 261 261 261 260 259 260 260 260 261 261 262 263 265 266 266 266 266 266 265 265 264 264 264 264 263 262 261 262 262 264 264 262 262 262 263 262 262 261 261 261 261 261 260 262
262 261 262 262 263 263 262 263 264 266 268 273 280 281 279 278 277 279 278 279 278 279 277 273 271 271 271 270 269 269 271 273 271 267 264 262 261 260 261 261 261 261 260 260 259 259 259 259 259 259 260 260 260 261 262 263 264 264 264 264 263 264 263 263 264 264 263 261 261 262 262 262 261 260 260 261 261 261 261 261 260 261 261 260 260 259 262
261 260 260 261 260 260 259 259 260 260 261 264 270 275 277 276 275 275 276 276 273 272 271 271 270 269 269 269 269 271 272 270 267 264 262 260 260 261 262 262 261 261 260 259 258 258 259 259 258 259 261 260 260 259 260 261 262 262 262 262 262 262 261 261 261 260 260 261 261 261 260 259 258 259 259 260 260 260 260 259 259 260 260 260 260 260 259
259 260 260 260 259 259 258 258 258 257 258 260 263 266 270 271 270 269 270 270 271 271 270 269 269 268 269 270 269 268 267 266 264 262 261 261 262 262 263 263 263 262 262 260 259 259 259 259 258 258 260 260 259 258 258 258 261 261 261 261 261 261 261 260 260 260 259 259 259 259 258 258 258 258 258 259 259 259 259 259 258 258 259 258 258 258 258
258 259 259 259 259 258 258 258 258 257 257 259 261 261 261 264 265 266 267 267 268 269 269 269 269 268 266 265 265 264 263 262 262 261 261 262 263 263 263 264 265 266 263 260 259 258 259 258 257 259 260 260 259 258 257 257 258 261 262 262 261 261 260 260 259 259 258 258 258 259 259 259 259 258 258 258 258 257 258 258 258 258 257 257 257 257 257
257 258 258 258 258 257 258 258 258 257 257 256 257 259 260 261 263 264 264 264 265 266 267 265 265 264 264 263 262 261 261 261 261 261 262 263 263 261 257 254 254 255 257 258 258 258 258 258 258 259 258 257 257 257 256 256 257 260 260 260 260 260 260 259 259 258 257 257 258 258 258 258 258 257 258 257 257 256 256 257 257 257 257 257 257 257 257
256 256 257 257 257 257 256 257 257 257 257 257 257 257 258 260 261 262 262 262 262 262 264 265 265 264 262 260 259 258 259 259 261 260 258 257 255 255 256 255 255 256 256 256 258 257 256 256 258 258 258 258 258 258 257 256 257 258 259 259 259 259 259 258 258 258 257 257 256 255 257 256 257 257 256 256 256 256 256 255 256 256 256 256 256 257 256
255 256 256 256 257 257 256 256 256 256 256 256 256 257 258 258 259 260 260 260 260 261 262 264 263 261 260 259 257 256 256 257 257 257 259 260 260 261 260 257 255 254 255 255 256 256 256 256 258 258 258 257 257 256 256 255 257 258 258 258 258 258 258 258 258 258 258 257 257 258 257 256 256 256 256 256 256 256 256 256 256 256 257 257 256 255 255
255 255 255 255 256 256 256 255 255 256 256 256 256 257 257 257 257 257 257 257 257 257 257 257 257 256 255 255 255 255 254 253 253 252 254 257 260 261 258 256 255 254 254 254 255 255 256 256 257 256 258 257 256 254 254 256 257 257 257 257 257 257 257 257 257 257 257 257 257 257 256 256 257 256 256 255 256 255 255 255 256 255 255 255 255 256 256
255 254 254 255 255 255 255 255 254 254 254 255 255 256 256 257 257 256 256 256 256 256 255 255 254 254 254 255 254 254 254 253 253 253 253 252 251 253 257 255 254 254 253 254 255 256 257 257 258 257 255 256 256 254 255 258 258 257 256 256 256 256 256 256 255 255 255 255 255 255 255 256 256 256 255 256 256 256 255 255 255 256 256 255 255 254 254
255 255 254 254 254 254 254 254 254 254 253 253 254 254 255 256 256 256 256 256 256 256 256 255 255 256 256 255 255 255 256 256 256 257 256 255 254 253 253 254 254 253 253 254 255 256 256 256 256 255 254 254 254 255 257 257 257 257 256 256 256 256 255 255 255 255 256 256 255 256 255 255 256 256 256 256 256 255 254 255 255 255 255 255 255 255 254
254 255 255 255 255 255 254 254 253 253 253 253 253 253 253 253 254 255 256 256 255 256 256 256 255 255 255 255 254 252 253 253 253 257 260 258 256 254 253 253 254 254 254 254 255 256 256 256 255 254 254 254 255 255 257 257 258 257 257 257 256 256 256 255 255 255 255 255 255 255 255 256 256 255 255 255 255 255 255 254 254 254 254 254 254 254 254
255 255 255 255 254 254 255 255 255 255 254 254 253 253 253 253 253 253 254 254 254 254 254 254 253 253 253 252 253 253 254 253 253 251 252 255 257 255 254 253 254 254 254 254 256 256 256 254 255 255 255 255 255 257 258 257 257 258 258 257 256 255 256 256 255 255 255 255 255 255 255 255 255 255 255 255 255 255 255 254 254 254 254 254 254 255 255
254 254 255 254 254 255 255 255 255 254 254 253 252 252 253 253 253 253 253 254 253 254 254 254 254 254 255 256 257 257 256 254 254 254 255 255 255 254 254 254 254 254 255 256 256 256 256 256 255 255 255 255 255 258 258 258 258 258 257 256 256 256 256 256 256 255 255 255 254 253 253 253 254 254 253 253 253 253 254 253 254 255 255 254 253 253 253
253 253 254 254 254 255 255 255 254 253 253 253 253 253 254 254 254 254 254 254 254 254 255 254 254 255 255 255 255 254 256 257 255 254 256 255 256 256 256 256 255 255 255 255 255 255 255 255 255 255 255 255 257 258 257 258 258 257 257 256 256 256 256 256 255 255 255 254 254 254 255 255 254 254 254 254 254 254 254 254 254 254 255 254 254 254 254
253 253 254 254 254 254 254 254 254 254 254 255 255 255 255 255 255 254 254 254 254 254 254 254 255 255 255 255 255 256 256 256 257 255 256 257 257 256 256 255 255 255 255 255 256 256 255 255 255 255 255 256 257 257 256 256 256 255 256 256 255 255 255 255 255 255 255 254 254 254 254 254 254 254 254 254 254 254 253 253 253 254 254 254 254 254 254
253 253 253 253 253 253 253 254 253 254 254 255 255 255 256 256 255 254 255 254 254 254 254 254 254 255 255 256 256 256 256 256 256 257 257 257 257 257 256 256 256 255 255 256 255 256 255 255 255 255 256 257 257 256 256 256 256 256 255 255 255 255 254 253 253 252 252 253 253 253 253 253 254 253 253 253 253 253 253 253 253 253 252 252 253 253 254
253 252 252 252 253 253 253 253 253 254 255 255 255 255 255 254 254 254 255 255 255 254 253 253 253 254 254 255 255 256 256 256 256 256 257 256 256 256 256 256 256 256 256 256 256 256 257 257 256 256 256 256 256 256 256 256 256 255 255 255 255 255 255 254 254 254 254 254 254 253 253 253 253 253 253 253 253 253 253 253 253 253 253 253 253 254 254
253 253 253 253 253 253 253 253 253 253 253 254 254 254 254 254 253 253 254 254 254 253 253 253 252 253 254 254 254 254 255 255 256 256 256 256 256 256 256 255 256 255 256 256 256 256 256 255 254 254 254 256 256 255 254 254 255 255 255 254 254 255 254 254 254 254 254 254 253 253 253 253 253 253 253 253 253 253 253 253 253 253 253 254 254 253 253
Wind_Speed
15 17 19 8 6 11 11 15 14 14 15 15 16 18 19 17 14 18 18 21 21 18 21 23 21 14 11 11 11 10 6 4 6 7 8 8 9 10 12 10 9 8 10 9 8 7 8 7 8 9 8 8 7 7 8 9 10 12 11 10 12 12 12 13 14 11 10 10 10 10 9 9 9 9 9 9 8 7 7 8 7 8 7 6 7 8 8
13 17 18 16 9 8 7 7 12 11 13 18 21 21 23 25 21 18 18 20 23 17 21 24 21 13 10 10 5 1 2 8 9 8 9 10 10 11 11 10 10 9 10 8 8 7 8 9 9 8 9 9 9 9 9 10 11 11 11 12 13 13 14 14 12 10 10 8 9 9 10 9 9 9 9 9 9 9 9 8 6 7 8 6 8 9 10
15 20 19 16 15 8 9 7 4 7 9 15 20 19 21 24 22 17 16 23 24 18 18 13 12 7 1 3 6 10 9 10 10 9 10 9 10 11 10 10 11 10 9 8 8 9 10 10 10 9 9 8 7 8 9 10 11 11 11 12 12 13 13 11 11 10 10 10 10 11 10 8 8 7 8 7 8 7 8 7 7 8 8 9 9 8 9
12 18 19 20 11 1 5 7 11 13 14 15 16 15 13 11 16 19 20 18 17 21 9 5 14 7 8 11 11 11 10 12 13 10 9 10 11 12 12 12 11 10 9 9 10 11 11 10 9 8 8 7 7 9 9 10 9 9 11 11 12 11 10 10 11 9 9 9 10 10 9 8 8 7 5 6 5 6 6 6 6 6 7 8 9 8 7
13 19 14 10 7 6 11 16 21 23 21 15 5 9 12 20 21 16 15 17 20 19 16 12 18 12 9 12 11 10 12 12 10 12 13 13 13 13 14 15 15 14 11 9 9 10 9 6 6 8 7 7 8 8 9 9 8 9 11 11 11 11 10 9 9 8 9 9 9 9 7 7 5 6 8 8 9 8 9 6 5 9 7 8 9 10 11
7 16 9 4 4 13 13 19 27 20 19 18 18 19 19 23 18 15 16 15 13 15 21 18 16 15 13 12 11 13 12 11 12 16 16 18 18 18 17 16 16 12 7 6 7 7 5 4 4 5 7 7 6 5 6 7 9 9 10 10 10 10 9 9 9 9 8 8 7 8 6 6 6 7 6 8 8 7 6 6 7 8 5 7 8 10 10
5 8 2 5 14 14 17 10 7 13 15 17 23 26 27 19 17 16 17 18 20 22 20 17 15 9 6 10 13 15 16 18 16 18 18 19 17 17 19 17 14 11 8 8 8 7 5 4 3 3 4 5 4 5 6 8 8 9 9 9 9 9 9 9 9 9 8 8 7 6 6 7 7 6 6 5 6 6 6 8 9 8 7 8 8 7 5
3 4 7 10 9 4 3 3 9 5 14 19 17 19 21 22 21 19 18 25 28 27 26 19 13 11 7 7 13 18 18 16 17 17 16 17 18 18 17 15 11 10 12 12 10 7 1 2 2 3 4 5 6 5 6 7 7 8 8 8 9 9 9 9 9 9 9 6 7 7 7 7 7 7 7 6 8 7 6 5 4 4 4 5 6 6 6
9 6 11 16 6 14 9 8 7 10 11 13 15 16 20 20 18 18 21 24 25 24 20 17 13 2 4 10 18 22 17 15 14 18 17 22 19 12 7 9 13 11 7 6 4 2 2 2 3 4 4 5 6 6 6 6 7 7 7 8 8 8 8 8 9 9 9 9 6 7 7 7 7 7 7 7 6 5 6 6 6 6 5 5 5 6 7
10 12 12 9 12 15 11 18 20 13 12 12 10 12 16 19 17 19 21 24 23 24 20 14 12 3 5 13 19 27 11 17 21 22 19 15 8 8 9 8 7 4 3 2 2 3 3 3 3 3 5 6 6 6 6 6 7 7 8 8 8 8 8 8 8 9 9 8 7 6 7 8 8 7 7 5 6 6 7 8 7 7 6 5 4 5 6
11 12 12 10 13 11 8 16 14 6 9 9 6 7 13 15 22 19 16 19 22 21 17 19 6 4 9 17 18 18 14 18 17 17 17 15 15 11 8 7 6 4 3 3 3 4 4 5 4 5 6 8 7 7 7 7 8 8 8 8 8 9 8 8 8 8 6 6 6 7 7 6 6 8 7 6 6 5 6 6 7 6 6 5 5 3 4
14 12 12 12 7 10 9 13 10 8 8 11 8 12 9 17 28 15 15 20 20 18 19 13 11 14 11 16 20 15 8 10 12 14 15 13 8 4 2 1 1 2 3 4 4 4 5 5 5 6 7 7 5 7 7 7 8 8 8 8 8 7 7 8 8 6 6 9 9 10 9 7 6 6 6 7 7 7 6 5 5 5 6 6 8 6 6
14 18 11 6 8 4 4 11 3 3 9 13 13 17 9 17 15 8 14 16 19 19 16 10 10 16 20 20 16 5 3 3 2 1 2 2 3 4 3 2 2 2 1 1 2 3 3 5 5 6 6 6 6 5 7 7 6 6 6 6 7 7 7 7 6 6 6 8 9 7 7 7 6 6 6 7 8 8 7 6 7 6 7 7 7 6 5
12 11 14 11 9 5 3 12 11 11 6 12 14 8 9 14 9 9 11 17 17 16 15 13 15 17 19 23 12 3 4 6 3 4 3 5 5 5 4 5 5 4 4 4 4 4 4 5 5 6 5 6 7 7 6 5 4 5 6 7 7 7 6 6 6 6 6 5 6 6 7 7 7 6 5 6 6 7 6 7 8 8 7 7 6 5 4
11 7 10 11 12 3 18 7 4 2 11 10 11 9 4 2 5 6 7 9 12 13 13 15 15 17 17 15 12 9 5 5 7 7 7 7 7 7 7 5 4 6 6 6 5 6 4 5 5 4 6 8 6 5 5 5 5 6 7 7 6 6 6 6 6 7 7 8 7 5 7 8 10 8 7 7 6 7 8 8 8 8 7 6 6 6 5
8 11 12 6 1 4 9 5 11 6 15 11 6 7 6 4 5 6 6 8 10 11 12 13 14 15 16 8 6 5 5 4 3 3 3 4 5 5 4 5 7 6 7 6 7 5 5 5 4 4 7 7 6 6 6 5 6 5 6 6 6 7 6 7 6 6 6 6 7 6 7 7 7 8 7 7 7 7 7 8 8 7 6 6 6 6 5
2 3 4 10 15 8 3 4 9 10 13 14 13 11 6 7 5 3 4 7 7 7 10 13 12 12 13 13 9 10 8 5 5 6 6 7 7 7 8 7 7 4 7 9 7 7 4 4 4 4 4 8 8 8 6 7 7 7 7 7 7 7 7 6 6 6 6 6 6 6 6 7 7 7 7 7 6 5 6 6 6 6 5 5 5 5 5
3 7 9 9 7 8 13 10 4 5 10 12 8 9 11 9 4 5 5 8 6 7 6 9 11 10 9 8 8 6 5 5 4 3 4 4 4 4 6 6 6 4 6 6 7 7 5 3 3 3 2 6 10 7 7 7 7 8 9 9 8 8 7 7 7 7 8 7 7 7 6 5 6 6 7 5 5 5 5 4 4 5 5 4 4 5 6
4 7 2 5 10 12 12 13 14 9 7 7 5 7 6 8 6 6 5 6 7 6 7 7 10 10 4 6 5 4 5 6 7 7 7 6 6 7 6 6 7 7 7 8 7 6 6 3 3 3 4 3 6 6 7 7 7 9 10 10 9 8 8 7 7 7 8 7 7 6 6 6 6 6 6 6 6 6 5 5 5 5 5 5 5 5 4
9 9 13 12 10 9 8 10 11 12 10 7 7 8 6 6 5 5 6 4 4 3 3 4 6 8 4 6 7 6 6 6 6 6 7 7 6 4 5 7 6 6 7 7 8 7 5 4 4 4 5 6 6 6 6 7 8 9 9 8 8 8 8 7 7 6 6 9 8 6 6 6 6 5 4 5 6 6 6 6 6 5 5 5 6 6 5
4 5 9 12 12 10 13 13 10 10 8 9 11 8 7 6 7 7 5 4 4 3 3 1 1 3 3 4 4 3 1 2 3 4 5 6 7 8 8 7 7 6 7 8 7 6 5 4 4 6 7 6 6 7 6 7 8 10 8 10 8 8 6 7 7 6 6 6 5 6 5 5 4 3 3 4 4 3 4 1 1 4 5 4 3 3 3
8 7 8 1 5 9 9 6 7 7 9 9 11 9 7 7 8 7 6 4 3 1 2 3 4 4 3 2 4 2 1 1 2 3 3 4 6 5 4 4 5 7 6 6 8 6 5 4 5 7 7 5 5 5 7 6 8 10 10 8 8 7 6 6 6 6 6 5 5 5 6 6 6 7 10 10 4 3 3 4 6 6 3 1 2 3 3
11 9 9 6 7 9 13 16 11 8 7 7 10 12 13 11 10 8 7 5 3 3 1 1 3 5 6 7 6 6 6 5 5 5 5 4 4 4 4 7 7 8 7 7 6 8 4 4 6 7 7 5 4 3 4 6 8 10 10 7 7 6 6 5 6 6 6 6 4 4 5 5 6 7 7 8 12 10 8 8 8 8 7 7 8 6 4
13 14 15 9 6 10 15 15 12 11 6 6 10 12 11 11 10 8 7 6 4 5 5 3 3 6 6 7 7 7 6 7 9 8 7 7 6 5 5 5 5 8 9 7 6 7 5 5 7 6 6 4 3 3 3 5 7 8 10 8 8 7 6 5 7 6 5 6 6 6 5 4 5 6 7 8 8 10 11 11 12 12 12 12 10 9 10
12 13 14 10 10 13 15 13 8 8 6 5 7 11 12 11 10 8 9 8 5 5 5 5 4 3 6 6 5 7 6 5 5 6 7 7 8 9 7 8 9 7 6 6 6 4 5 5 5 4 7 4 2 2 3 5 7 8 8 8 10 8 6 6 6 8 6 6 5 6 7 6 5 5 6 7 9 8 8 11 12 12 12 13 13 12 12
14 15 13 4 3 8 10 8 11 11 11 9 8 10 9 7 9 5 8 7 4 2 3 3 3 1 3 5 4 4 6 6 6 7 6 7 7 7 7 9 7 6 6 5 5 5 5 5 5 5 7 3 2 1 1 4 6 7 7 7 9 8 7 8 8 6 5 4 5 5 4 4 4 5 4 5 8 9 9 7 8 10 11 11 11 11 11
11 11 8 11 13 15 13 11 13 7 2 3 9 11 7 5 6 4 2 2 3 2 3 2 3 4 4 3 5 4 7 7 6 5 5 6 7 7 6 6 9 9 7 6 5 5 6 6 6 8 6 2 2 1 1 4 7 7 7 8 6 7 10 9 5 6 5 5 5 6 6 5 6 5 4 5 7 8 8 9 8 7 5 7 10 11 10
9 7 7 11 15 16 10 6 7 8 8 7 7 8 5 2 2 4 5 4 3 3 3 5 8 8 7 6 7 7 7 8 7 6 7 7 5 6 8 8 8 8 7 7 6 5 5 4 6 8 5 2 2 2 1 4 7 8 8 9 7 5 5 6 4 4 5 5 5 5 5 5 3 4 5 7 7 6 7 7 7 7 5 4 4 9 13
8 10 10 11 11 10 6 5 7 9 10 6 4 3 4 6 7 6 7 6 6 5 5 5 3 6 7 7 7 9 7 7 8 9 7 5 4 5 7 8 8 8 8 7 5 4 4 5 4 7 4 2 3 2 2 5 6 6 7 5 6 5 5 4 4 4 4 3 3 4 5 4 4 5 6 5 4 7 7 9 6 4 5 4 4 5 8
7 6 6 9 11 8 7 11 13 11 7 5 6 5 5 6 6 7 7 5 5 7 6 5 6 7 6 7 7 9 11 11 9 7 7 5 5 6 8 8 8 7 6 5 4 4 6 5 5 6 2 3 3 2 3 6 6 7 7 7 5 5 4 5 6 6 5 5 5 7 5 4 4 5 5 5 5 5 4 5 5 5 5 4 4 5 5
13 11 7 6 6 6 9 12 8 7 7 4 5 4 4 5 7 7 7 5 3 2 3 5 5 7 7 8 6 5 6 7 7 6 5 5 5 6 7 8 11 10 9 7 5 5 6 6 4 3 2 2 2 2 6 6 5 7 6 6 6 8 8 8 6 5 5 6 5 5 5 4 4 4 4 5 5 5 5 5 6 5 4 4 4 4 4
15 13 8 6 6 5 8 7 8 9 8 4 3 9 12 10 11 13 9 8 9 7 8 8 9 9 7 6 8 8 8 8 7 7 6 6 6 5 4 3 3 6 8 7 5 4 4 5 5 2 2 2 2 3 5 5 5 5 6 6 6 6 6 7 5 5 3 4 5 4 3 5 4 4 4 4 4 5 5 6 5 5 4 5 4 2 3
11 12 10 6 9 6 7 6 4 8 5 6 9 8 5 6 7 5 6 5 4 5 7 8 6 6 8 10 10 9 9 9 8 7 7 6 5 4 4 4 6 10 8 5 4 4 4 4 3 2 2 2 2 3 4 5 4 6 6 5 6 6 6 5 6 6 5 4 3 4 4 3 4 3 3 3 3 3 4 4 4 4 3 2 2 2 3
6 6 9 8 7 8 10 12 8 9 9 7 7 7 7 5 5 4 2 3 4 5 7 7 7 8 8 10 10 10 11 11 6 6 7 7 5 5 5 6 7 8 7 6 5 5 4 3 2 3 3 3 3 4 5 5 4 5 5 5 6 6 5 5 4 4 4 3 3 4 4 3 3 3 3 3 3 3 3 4 3 3 3 3 2 1 2
9 12 11 10 8 8 9 11 10 7 7 11 10 7 5 5 5 4 2 4 6 5 3 6 9 7 9 8 7 9 9 10 11 10 9 7 6 6 6 9 9 9 8 7 5 4 3 2 2 3 4 3 4 4 5 7 5 5 5 5 5 5 5 4 4 4 4 5 4 4 4 3 3 4 3 4 3 3 3 3 3 4 4 4 3 1 1
12 11 9 8 8 8 9 10 9 9 8 8 10 10 7 5 4 4 4 3 2 5 7 9 8 9 8 9 8 7 7 6 8 8 8 7 6 7 8 8 8 8 8 7 4 3 3 3 3 2 3 4 4 5 4 4 5 5 5 5 5 4 4 4 4 5 3 4 4 3 3 4 5 3 3 3 3 3 3 3 3 2 3 4 4 3 1
9 10 10 10 9 9 10 8 8 9 9 9 8 8 8 5 3 2 2 4 5 7 8 9 9 9 7 5 5 6 6 7 7 8 7 7 7 8 8 7 5 7 7 8 3 2 2 3 3 4 4 4 5 5 5 6 5 4 5 5 4 5 5 5 4 4 4 3 4 5 5 4 3 3 2 2 2 2 2 3 2 2 2 3 3 3 2
11 11 11 10 10 10 10 9 9 8 9 10 6 4 6 7 5 2 2 3 3 4 5 6 7 7 8 9 8 7 7 7 9 8 8 9 9 9 7 6 6 4 4 4 3 3 3 4 3 4 4 5 4 5 5 6 6 5 4 4 4 4 3 5 4 3 3 4 3 4 3 3 4 3 2 2 2 2 2 2 2 3 2 2 2 2 2
12 9 9 10 10 9 10 9 8 8 8 9 10 7 8 8 6 3 3 4 2 3 6 7 9 11 11 11 8 7 6 7 10 11 10 9 7 10 8 4 4 4 3 4 4 3 4 4 2 4 5 5 6 6 5 6 5 4 4 4 4 4 4 3 5 3 3 3 3 3 3 3 3 3 2 2 2 2 1 2 3 2 2 3 3 3 2
9 10 12 12 10 11 9 8 8 8 8 7 7 7 8 7 5 2 3 4 3 2 4 7 11 13 13 11 9 8 6 7 8 8 7 11 12 11 8 7 5 4 4 4 4 4 5 6 5 5 5 4 4 4 4 4 5 3 4 4 4 3 3 3 4 5 4 3 5 4 3 3 2 2 2 2 2 2 2 2 3 2 2 2 2 2 1
9 10 11 10 10 10 9 9 8 8 7 8 7 7 7 6 5 3 5 4 3 3 3 4 8 10 10 10 9 9 8 8 9 9 9 9 9 5 6 5 2 2 3 2 3 4 5 4 4 4 4 4 4 4 4 4 3 3 3 3 3 3 3 3 3 3 3 3 3 3 3 3 3 3 2 2 2 2 2 2 2 2 2 2 2 1 1
11 11 11 10 9 9 10 9 8 7 7 8 8 8 8 7 6 4 4 4 7 9 10 10 9 12 10 9 9 9 9 8 11 10 8 6 4 5 7 4 2 2 4 4 4 5 4 5 5 5 4 4 4 5 5 3 3 3 3 3 3 3 4 3 3 2 2 2 2 2 2 2 2 2 2 2 2 2 2 2 1 1 1 1 1 1 2
11 11 10 9 8 9 8 8 7 7 7 8 9 9 8 6 6 5 6 7 7 7 9 9 10 10 9 9 8 9 8 5 7 6 7 9 10 7 3 6 4 3 4 3 4 3 4 3 4 4 5 4 4 5 5 4 3 3 3 3 3 3 3 3 3 3 2 2 2 1 1 2 2 2 3 3 2 2 2 2 2 2 2 2 2 2 2
10 9 8 8 8 8 7 7 7 7 7 8 9 9 9 7 7 6 6 7 9 9 9 9 8 9 8 7 8 8 7 6 5 5 8 8 9 10 9 6 5 5 5 3 4 4 4 4 5 6 8 8 7 6 3 3 4 4 4 3 3 3 3 3 2 2 2 2 2 2 2 1 2 2 2 2 2 1 1 2 1 2 1 1 1 1 2
9 8 8 8 9 7 6 5 6 6 5 5 7 9 9 9 9 8 7 7 9 9 8 8 8 7 6 7 6 6 5 5 4 2 3 5 6 4 3 4 5 4 4 6 5 5 5 5 7 8 8 8 7 7 4 4 4 4 4 3 3 3 3 3 3 2 2 2 2 1 0 2 2 2 1 1 1 1 2 3 3 2 2 2 2 2 2
9 8 8 7 7 6 6 5 5 4 3 4 7 9 10 8 8 8 8 8 9 9 9 9 9 8 8 7 6 6 7 7 7 6 5 4 4 6 4 4 4 5 7 7 5 6 6 8 9 8 8 7 6 5 4 4 3 3 3 3 3 2 2 2 2 2 1 1 1 1 1 1 1 2 2 2 2 2 2 2 2 2 2 2 2 2 2
8 7 7 7 6 6 6 5 5 5 5 5 7 7 7 7 7 6 8 9 10 9 9 8 8 7 5 5 6 7 7 7 9 9 8 8 10 9 7 8 7 6 6 5 5 5 4 5 6 7 6 6 6 4 4 4 4 4 3 3 3 2 2 2 1 1 1 1 0 0 1 1 1 2 1 2 3 3 2 3 3 3 2 2 2 3 4
7 8 8 9 8 7 5 5 5 7 8 8 6 5 4 5 7 7 8 9 10 10 9 8 8 8 8 7 5 5 3 3 10 7 6 6 7 6 6 5 6 7 8 8 8 8 8 8 7 7 6 5 3 3 3 3 3 3 3 2 1 1 1 1 0 1 1 1 2 3 2 3 3 3 3 3 4 3 3 3 3 3 3 3 4 4 4
7 8 8 8 9 9 8 6 7 7 6 4 4 4 4 5 6 8 8 9 11 11 10 10 11 10 10 8 9 7 7 7 6 7 4 5 6 6 7 7 8 7 5 5 6 5 6 7 6 6 5 4 3 3 2 2 2 1 1 1 1 0 1 1 1 1 1 2 2 2 3 3 3 2 3 3 3 3 3 4 4 4 4 3 4 3 5
7 6 7 6 7 7 7 5 6 6 5 5 4 4 3 3 8 8 7 8 8 8 9 9 8 8 8 8 9 9 10 10 11 10 8 7 7 7 6 6 6 6 6 4 5 4 5 5 5 5 2 2 2 2 2 1 1 1 1 0 1 1 1 1 1 2 2 2 3 3 3 3 3 3 2 3 4 4 3 4 4 5 7 6 5 6 5
7 7 6 7 7 7 9 8 7 6 5 5 4 4 4 6 7 7 7 6 7 9 9 8 8 8 8 8 8 8 8 8 9 9 7 7 6 7 6 5 5 4 4 4 4 3 3 3 2 2 2 2 1 1 1 1 0 0 0 1 1 1 1 1 2 3 3 2 2 3 3 3 3 4 4 4 4 4 4 4 4 4 5 6 6 6 6
8 7 7 6 7 7 7 8 9 8 7 6 6 5 6 6 6 7 8 9 8 7 7 9 9 7 6 6 7 7 7 7 6 6 6 6 5 5 5 6 5 4 4 4 4 3 3 2 2 2 2 1 1 1 1 0 1 2 2 2 3 3 3 2 2 3 3 4 4 4 4 4 3 4 5 4 4 4 5 5 5 5 5 5 5 5 5
Wind_Direction
256 262 268 254 183 220 211 215 212 204 192 190 201 218 230 219 218 232 230 231 234 244 252 256 256 242 218 220 222 230 250 312 269 244 241 244 242 241 234 237 236 232 229 229 227 222 226 215 217 218 221 223 203 196 199 195 194 202 199 196 201 202 202 206 208 197 187 188 184 181 175 177 179 180 180 175 171 162 166 174 172 177 175 163 155 170 171
270 265 262 260 228 241 249 244 236 231 197 197 203 214 218 221 226 231 242 250 247 232 242 247 252 258 248 240 215 106 206 235 247 246 242 234 231 231 233 238 234 228 228 226 223 224 227 217 212 211 213 215 202 195 201 198 199 199 192 200 201 203 207 208 203 194 187 176 179 178 180 181 177 176 172 167 166 170 176 177 164 165 170 160 173 178 172
257 258 259 262 255 241 256 242 240 244 232 216 212 217 223 227 237 241 241 245 252 246 239 260 276 277 31 288 212 224 222 224 232 237 240 243 250 248 236 235 235 230 226 225 223 219 225 217 209 205 211 209 195 198 202 197 198 194 191 200 205 206 209 203 198 191 183 183 180 183 182 173 170 151 163 159 165 169 170 164 159 165 169 171 177 174 165
247 251 248 251 261 176 239 256 241 228 217 221 215 225 226 231 235 237 245 251 254 257 248 249 267 224 212 229 221 220 227 228 229 234 238 239 240 241 238 235 230 226 218 212 212 219 222 219 205 204 206 202 190 207 199 200 195 185 191 200 206 210 207 199 198 182 180 174 175 182 174 172 174 173 149 154 153 163 166 166 170 152 170 173 172 163 162
234 251 241 257 257 273 267 251 244 232 232 224 221 229 233 228 224 232 230 232 236 252 256 241 248 238 225 233 229 229 232 236 228 228 230 229 233 239 245 249 252 241 225 211 218 225 224 208 201 206 194 189 206 201 193 194 175 181 192 199 203 207 202 197 190 181 181 172 175 174 173 165 153 149 165 165 168 170 180 174 148 176 175 166 167 174 179
234 256 258 233 229 231 230 230 234 234 238 234 231 236 226 227 216 227 230 248 255 253 255 249 253 247 239 240 239 234 240 238 226 233 237 240 242 246 249 249 248 250 242 240 239 242 244 230 213 199 190 201 203 183 180 173 180 186 189 197 200 200 195 194 187 181 177 176 179 170 156 150 153 157 163 167 167 166 154 151 169 176 166 173 175 182 180
224 256 130 205 225 231 239 267 276 239 241 234 233 236 240 235 222 229 252 263 261 254 250 253 261 273 262 237 245 246 238 237 239 240 239 242 243 239 243 240 233 229 238 249 245 234 229 222 208 186 202 200 193 176 178 180 183 179 185 188 193 194 192 190 183 179 172 172 172 160 157 150 155 160 164 155 146 155 162 169 172 177 167 174 178 175 160
270 245 216 243 226 228 331 278 248 231 230 233 240 251 249 244 240 233 230 239 243 246 249 252 263 273 289 295 255 245 241 229 237 244 244 246 243 236 224 229 229 224 228 226 225 232 143 172 194 197 201 173 175 181 167 174 172 176 177 185 189 189 187 181 177 177 167 163 167 162 155 156 157 159 162 161 164 160 153 149 136 136 153 159 160 164 158
233 206 229 244 306 298 277 275 233 195 203 214 208 232 247 238 226 224 234 240 242 247 253 260 267 246 301 274 268 247 225 233 237 237 238 241 248 249 227 200 221 222 221 210 200 158 169 190 196 191 167 157 165 150 158 166 157 168 171 183 189 186 184 178 176 174 170 165 158 154 152 152 156 157 154 160 153 147 149 152 150 160 159 152 160 155 156
199 232 246 249 241 240 241 242 252 237 218 225 204 213 250 259 241 227 227 239 248 252 257 254 242 110 270 270 264 266 217 212 225 236 243 252 255 217 211 208 225 197 183 164 187 192 199 187 188 158 154 156 150 149 154 153 158 168 175 186 185 178 183 172 171 169 168 160 156 153 152 159 161 165 161 149 149 153 154 161 162 162 149 128 137 153 158
213 211 223 220 234 238 228 251 251 222 179 183 140 205 244 251 252 237 232 240 246 250 247 243 143 176 240 253 258 270 150 212 215 228 235 216 222 225 204 197 195 188 181 177 172 170 180 180 169 158 149 145 145 152 152 157 163 167 179 182 174 175 176 166 168 162 156 147 149 150 158 156 155 156 157 151 137 141 149 142 146 141 137 134 137 135 153
217 228 226 227 217 250 229 254 249 183 156 134 132 224 220 246 250 227 214 227 239 239 238 224 167 208 229 249 257 268 196 204 201 212 228 227 211 210 79 11 4 73 117 127 150 166 175 164 144 149 144 147 144 143 150 153 164 174 178 174 167 164 157 156 156 150 154 163 162 164 165 156 150 150 132 132 143 148 144 138 130 129 139 142 151 153 151
218 220 243 256 245 233 236 249 214 132 164 155 191 213 206 237 255 217 204 211 220 231 231 194 210 217 226 237 253 59 94 95 225 340 35 64 96 131 120 105 100 108 115 129 127 138 123 129 140 142 140 130 141 143 147 156 172 170 158 145 149 150 149 149 149 145 146 158 159 159 153 146 142 128 142 140 145 151 145 136 136 140 149 150 150 149 155
223 217 228 234 255 211 198 251 196 156 131 221 215 223 237 246 247 221 203 206 212 222 218 212 217 230 229 238 251 194 179 196 93 122 117 110 99 78 94 115 138 138 121 104 98 95 109 131 136 143 137 132 139 145 152 158 149 130 132 139 139 137 139 139 132 127 134 116 130 128 134 128 121 126 122 127 136 141 139 137 144 146 149 154 144 137 134
231 227 236 238 238 132 218 216 27 244 228 236 244 252 313 30 286 230 232 208 214 215 227 224 222 232 242 239 237 225 170 177 177 171 171 163 157 153 147 153 159 150 140 139 136 132 133 139 142 142 135 129 135 140 141 136 130 136 136 134 132 130 124 121 126 132 131 133 128 125 133 140 140 134 144 144 141 138 139 139 136 137 145 137 131 132 125
244 214 219 214 49 345 329 237 238 174 223 252 11 0 280 228 213 261 241 226 222 219 219 225 228 232 240 244 238 195 201 200 157 158 147 136 130 142 141 146 157 154 137 134 132 135 136 144 142 143 142 129 138 137 130 133 128 123 122 123 122 115 118 121 119 124 122 121 125 131 135 134 134 137 145 144 145 152 144 142 143 140 143 137 134 135 143
234 297 319 325 307 271 254 358 313 322 315 319 336 326 298 302 315 39 299 270 275 277 255 241 229 233 233 232 205 197 194 183 187 181 181 169 167 159 156 155 157 156 145 142 132 128 128 132 141 141 147 131 137 133 135 132 130 124 113 114 114 113 113 117 117 114 114 121 123 122 127 137 137 142 132 134 138 134 137 132 131 136 140 151 154 156 152
235 242 234 258 288 303 311 309 231 271 305 306 325 339 322 301 322 328 297 304 315 311 314 291 278 247 226 200 192 196 169 179 168 138 135 128 119 120 115 130 149 140 114 111 118 119 112 103 121 121 141 137 132 135 133 134 127 121 124 122 114 114 116 116 113 117 110 109 113 117 125 130 123 128 130 127 121 127 123 123 130 137 149 155 166 171 178
269 277 233 224 269 289 293 293 300 273 199 242 269 265 231 262 280 286 276 283 292 292 295 256 264 282 316 240 196 173 166 176 180 173 164 154 153 150 151 143 135 134 138 128 129 126 117 112 103 106 97 92 107 123 127 128 125 126 127 122 116 120 120 118 118 118 123 130 130 125 122 126 127 132 137 136 135 143 149 152 158 160 156 165 163 166 168
229 255 262 269 266 267 275 274 281 288 289 259 219 224 252 266 262 243 255 247 258 274 271 286 292 284 239 210 200 188 191 177 167 168 158 153 141 134 124 139 145 136 139 133 130 125 117 109 100 94 95 94 107 114 116 126 128 125 117 119 120 121 121 122 127 125 117 120 123 128 123 126 133 135 138 140 147 156 167 165 162 161 162 165 171 171 166
238 277 280 276 281 278 263 256 238 244 254 270 266 232 230 247 257 254 240 223 223 194 218 251 329 322 311 342 341 358 56 129 147 163 153 146 144 143 149 154 165 152 141 128 125 110 112 103 99 96 84 93 97 115 126 134 131 125 119 120 114 110 117 119 121 122 126 134 130 122 112 88 73 83 134 152 138 103 26 42 151 161 164 163 167 162 147
276 263 272 272 317 307 290 250 233 256 253 237 258 277 257 230 243 243 240 252 275 257 226 182 161 173 174 116 126 136 113 98 104 109 110 117 122 127 125 123 117 115 116 118 130 123 123 128 119 109 98 91 86 114 136 139 136 126 126 115 118 123 124 122 121 125 123 116 106 112 115 118 107 79 56 62 61 108 117 81 66 37 58 145 148 138 131
270 267 256 227 237 257 268 280 286 273 257 231 252 259 257 251 234 226 215 202 234 237 250 282 177 164 169 166 148 141 153 152 139 126 119 118 111 105 113 112 116 110 114 118 111 102 111 107 92 87 91 65 93 98 134 138 137 135 134 125 121 124 126 134 140 133 125 124 126 114 116 119 115 110 103 77 77 82 92 97 88 98 103 108 109 101 111
267 275 279 261 236 257 271 270 268 267 244 222 249 258 256 251 249 225 231 241 229 202 179 205 241 169 162 167 159 143 125 145 142 146 146 137 127 131 136 139 128 131 133 134 143 134 125 111 98 91 91 80 63 58 92 129 136 139 147 140 139 144 137 128 130 129 123 124 125 124 117 117 119 122 117 113 93 86 92 92 94 93 90 90 95 101 105
259 258 260 257 242 254 262 278 290 272 259 205 235 250 251 243 235 217 220 236 243 224 206 194 177 169 157 160 166 162 156 149 146 141 144 142 148 159 160 150 162 158 144 129 120 119 130 127 121 109 97 63 14 23 108 139 142 138 144 142 125 122 127 132 131 133 134 136 136 137 140 134 135 134 135 135 128 118 98 98 98 97 95 98 101 109 116
245 259 269 311 312 262 270 301 272 252 247 219 234 260 263 240 236 214 219 213 230 244 239 197 190 98 133 145 134 121 115 122 135 127 132 154 156 153 161 168 152 111 110 114 127 133 129 125 120 115 101 63 11 11 2 140 139 137 135 136 144 147 146 144 136 143 145 141 138 137 134 131 138 139 136 134 135 133 127 116 93 85 95 110 116 114 116
239 249 288 292 278 271 253 230 262 279 352 248 219 249 261 246 217 215 157 198 206 181 200 208 150 121 106 118 114 121 141 127 126 151 154 162 173 169 146 126 116 116 119 120 115 120 124 125 117 96 88 46 342 316 257 131 128 123 122 125 111 115 133 144 136 141 142 141 139 135 138 143 148 146 125 130 132 135 137 131 128 124 112 80 77 99 113
249 231 188 239 253 260 285 318 300 295 268 253 230 230 210 171 169 195 199 189 180 152 139 164 154 153 151 158 146 124 119 147 158 162 163 166 139 100 106 107 112 121 119 109 105 111 108 111 108 100 77 16 351 316 44 119 126 125 125 124 119 128 132 141 126 130 137 138 139 144 142 137 122 104 116 133 136 135 133 126 125 124 96 67 68 53 78
243 231 220 237 262 278 277 256 275 264 263 258 253 203 159 185 219 221 225 210 174 147 162 169 178 168 153 156 155 146 151 160 164 164 142 113 121 107 105 106 105 97 96 104 102 116 117 116 114 97 71 12 349 345 39 101 107 119 123 129 134 128 134 133 128 121 111 107 104 114 103 103 112 118 128 127 125 133 135 138 133 101 110 124 113 95 76
299 287 238 229 239 249 281 270 256 258 254 219 202 215 206 199 211 230 229 216 187 190 184 155 147 149 155 159 167 168 172 176 166 129 112 119 113 117 115 110 94 76 78 90 124 128 125 122 111 98 68 359 353 348 87 90 98 99 107 98 97 109 108 106 108 111 113 119 112 116 118 124 122 127 124 122 127 120 123 128 133 128 138 144 138 145 136
310 301 274 265 266 261 238 256 264 260 253 235 225 255 257 232 235 232 221 207 216 194 151 170 169 143 162 171 150 109 89 94 103 114 107 110 104 118 134 155 154 168 168 151 138 124 102 90 78 83 21 337 346 50 96 104 112 106 95 94 87 96 105 111 116 125 124 124 127 129 122 123 127 127 127 130 131 132 136 137 148 149 150 150 154 156 143
305 294 284 254 240 261 270 265 268 262 246 217 203 226 222 205 218 225 215 201 205 184 165 169 175 183 166 120 106 103 108 110 105 110 119 121 120 99 65 53 44 82 78 79 77 85 96 100 83 46 355 332 19 32 97 127 131 117 113 123 120 125 120 117 109 107 110 114 120 115 123 125 126 124 122 136 141 141 141 142 147 155 157 159 157 145 137
331 302 277 328 343 304 269 266 279 287 303 267 246 252 255 228 243 245 224 201 162 184 186 189 175 141 129 127 124 124 119 110 114 122 130 128 112 52 30 44 64 86 82 65 57 56 62 72 86 51 15 8 23 49 83 104 111 116 123 120 112 109 112 98 106 112 108 111 105 111 120 113 124 131 131 125 127 131 136 136 138 143 148 141 132 118 140
315 293 313 305 279 301 315 305 329 325 305 275 262 274 280 268 254 270 232 189 188 189 195 181 138 122 129 130 133 135 131 127 136 160 157 143 121 91 86 81 83 82 83 86 73 76 74 70 51 69 58 42 43 50 67 83 92 96 105 111 115 116 112 117 113 104 105 95 98 104 98 107 117 125 132 133 137 137 131 136 134 133 129 128 120 131 196
306 297 292 293 306 296 291 286 296 299 308 301 291 268 254 279 281 264 228 199 208 205 151 115 112 124 130 130 137 154 166 172 159 143 148 136 125 126 120 114 110 100 87 70 66 70 63 67 69 89 84 66 60 58 60 74 79 100 91 93 93 98 106 110 110 111 109 115 119 118 120 118 108 108 118 122 119 124 125 125 131 137 136 137 135 129 238
323 315 312 310 306 297 292 284 280 283 283 279 289 297 284 257 243 233 208 195 85 104 110 109 115 109 117 139 147 158 148 116 126 123 127 121 126 134 133 127 124 110 109 92 58 47 67 71 60 83 101 88 77 56 46 78 78 85 97 103 99 98 90 87 91 88 93 111 109 98 90 99 104 107 110 104 107 115 123 131 136 140 139 143 147 148 128
325 315 312 312 310 311 302 294 299 302 297 290 298 316 320 327 309 325 33 83 126 120 133 135 137 146 145 122 81 68 75 107 118 130 127 126 133 135 136 125 111 129 127 115 107 81 60 86 90 101 93 84 80 69 67 88 100 100 102 97 98 107 114 112 108 107 99 89 97 105 119 118 99 98 102 100 119 122 127 134 136 139 148 149 154 160 158
320 319 318 314 315 313 309 309 316 307 306 313 328 324 325 323 335 346 37 52 65 127 123 135 138 131 111 100 80 82 95 101 116 121 124 133 140 127 122 125 131 133 102 102 121 112 91 101 98 86 76 79 77 81 67 72 101 100 98 104 110 111 107 111 109 103 104 106 107 115 114 108 117 117 113 110 119 133 136 132 146 153 151 162 168 177 180
329 328 319 319 320 313 314 317 336 334 342 334 327 323 338 336 331 356 48 41 28 66 120 121 123 123 120 117 116 108 102 120 132 136 133 121 105 92 75 44 28 15 55 93 109 98 105 101 94 80 78 83 84 76 65 67 86 85 93 105 102 105 108 105 109 104 101 110 109 101 97 103 110 120 131 136 130 120 122 153 155 156 160 170 174 182 184
324 325 325 327 321 325 321 321 331 334 334 335 342 340 330 334 338 3 55 57 23 53 122 139 136 129 122 116 110 109 103 113 123 112 98 104 100 102 99 68 36 30 57 75 98 95 92 98 92 80 81 76 75 88 86 99 106 96 99 101 104 101 99 101 106 111 114 108 112 115 112 119 124 127 121 129 132 143 144 158 171 174 172 170 187 184 174
320 324 325 323 321 320 322 323 324 329 337 341 347 343 345 336 325 6 26 26 16 47 61 103 124 97 90 111 104 98 97 98 98 108 121 120 114 119 103 110 65 30 31 54 69 90 88 78 77 81 78 74 67 88 103 96 90 79 88 92 97 102 107 104 103 109 120 122 127 133 133 131 128 138 135 139 149 154 167 178 177 182 188 186 189 186 203
327 328 325 326 320 323 320 322 320 331 351 357 351 355 359 2 14 21 12 26 44 37 55 49 66 94 99 97 101 95 82 76 69 46 37 50 71 122 113 115 117 80 64 70 67 79 76 68 66 69 73 77 78 74 84 91 73 73 78 79 77 81 87 96 95 92 86 93 96 102 107 121 130 136 140 150 163 178 178 182 193 194 205 206 203 203 210
333 332 328 325 322 320 325 326 331 337 348 360 360 1 3 6 20 29 37 44 55 65 72 77 89 91 91 98 99 92 92 85 78 87 76 58 41 354 52 121 121 93 72 78 76 74 69 68 66 64 63 69 84 88 81 73 75 78 73 79 75 78 78 84 91 101 100 106 105 105 116 133 147 155 164 178 185 181 186 190 206 212 201 208 213 212 216
327 327 327 326 329 330 331 331 337 349 6 2 356 359 9 19 28 39 53 62 70 69 80 86 88 90 89 93 94 103 107 105 105 100 101 94 70 42 39 87 105 85 64 74 74 71 70 62 67 78 74 75 76 70 68 69 70 74 72 73 78 85 90 87 93 95 109 120 135 144 153 153 160 171 180 187 189 188 201 210 216 218 220 211 220 224 223
325 323 324 330 327 330 333 341 348 1 6 7 17 22 15 20 28 29 43 61 70 70 68 74 69 59 64 69 61 55 61 59 36 341 103 104 100 88 51 56 83 86 70 80 77 74 67 69 78 78 78 73 75 79 73 72 70 78 83 87 85 87 87 99 106 107 105 106 120 119 145 174 184 179 200 211 213 214 211 213 225 214 214 225 213 222 225
329 330 336 340 347 346 348 351 346 348 343 27 53 42 32 24 32 41 39 52 69 70 76 79 83 82 89 92 92 93 87 74 64 43 20 6 80 120 111 84 81 84 86 79 76 74 75 77 81 82 80 79 82 79 73 72 76 81 78 83 81 83 86 82 84 95 104 115 126 142 184 201 199 218 214 215 221 227 240 239 250 237 218 229 234 235 245
340 347 350 357 357 2 8 18 34 34 31 35 50 53 36 34 44 57 65 63 71 74 73 69 72 70 59 65 89 98 94 84 60 43 53 67 76 80 84 80 78 70 75 75 70 71 79 79 77 69 56 63 67 69 72 74 73 72 73 68 73 72 83 90 92 94 100 118 120 162 236 235 237 235 216 233 236 235 230 225 237 244 236 226 240 244 243
355 1 2 5 6 6 13 25 41 51 44 46 50 61 54 60 65 67 65 68 69 70 66 64 61 56 50 52 44 36 15 72 98 65 50 66 73 78 78 77 88 88 83 82 78 75 75 80 76 71 66 69 67 68 70 71 69 72 82 88 70 81 86 94 150 156 189 182 213 225 220 221 224 227 230 236 244 241 234 235 242 245 246 233 233 236 231
2 9 13 18 23 25 22 26 37 46 50 20 23 56 64 75 74 65 57 60 64 64 62 58 57 59 61 53 50 55 55 34 66 115 103 73 81 84 87 85 77 76 71 80 85 82 66 72 76 74 65 57 65 62 60 63 68 72 74 80 103 114 161 202 218 199 221 224 223 227 238 235 236 230 235 236 238 242 234 241 244 242 241 242 242 240 239
13 22 26 17 15 13 2 16 33 35 28 15 10 12 15 79 76 60 57 57 61 67 64 54 50 49 51 50 55 56 51 62 71 80 84 77 76 77 78 78 82 78 77 81 80 84 73 71 71 70 62 68 74 77 78 84 97 101 110 143 188 211 203 214 225 225 230 242 244 241 244 246 244 247 249 253 248 246 244 244 244 247 247 249 252 252 246
23 30 29 27 27 25 18 22 20 18 21 23 9 5 18 46 59 58 53 52 69 67 66 61 52 45 42 48 51 47 52 61 66 69 77 74 72 71 70 78 75 71 73 77 73 70 72 69 64 74 78 81 80 95 85 83 42 98 220 245 251 251 250 224 235 241 241 234 243 241 245 249 242 242 247 247 244 244 246 243 247 243 240 243 241 243 242
24 34 30 30 34 33 29 26 22 23 18 6 1 12 23 47 66 63 57 48 54 65 76 86 69 32 34 49 53 59 55 56 65 69 67 72 76 80 74 73 75 66 59 64 66 61 58 57 39 38 25 38 41 29 66 162 243 258 260 257 257 261 251 247 251 248 247 242 239 247 246 244 240 250 252 244 246 245 248 245 244 244 243 240 241 239 244